Location: Bakov nad Jizerou
(50.4784°N, 14.9394°E)
Time: 14:19:30
(UTC+00:00)

FALCON 9 DEB - Pass Details

Date: 16 June 2021
Orbit: 363 x 377 km, 53.0° (Epoch: 02 August)

Event Time Altitude Azimuth Distance (km) Brightness Sun altitude
Exits shadow 23:20:31 - 258° (WSW) 1,476 5.6 -16.0°
Reaches altitude 10° 23:20:41 10° 259° (WSW) 1,412 5.6 -16.0°
Maximum altitude 23:23:50 72° 344° (NNW) 410 3.1 -16.0°
Drops below altitude 10° 23:26:59 10° 70° (ENE) 1,414 6.1 -15.9°
Sets 23:29:03 0° 72° (ENE) 2,267 7.1 -15.9°
